[[{"header":{"parameterUnit":"m.s-1","parameterCategory":1,"la1":30.2991,"la2":30.254,"lo1":-89.0895,"lo2":-89.0444,"dy":0.0017,"dx":0.0017,"nx":28,"ny":28,"refTime":"2023-08-20T09:00:00:Z","depth":0,"parameterNumber":2,"parameterNumberName":"U-component_of_WINDS"},"data":[0,0,0,0,0,0,0,0,0,0,0,0,0,0,0,0,0,0,0,0,0,0,0,0,0,0,0,0,0,0,0,0,0,0,0,0,0,0,0,0,0,0,0,0,0,0,0,0,0,0,0,0,0,0,0,0,0,0,-0.727,-0.7272,0,-0.7402,-0.7403,-0.7405,-0.7482,-0.7483,-0.7483,-0.7483,-0.7619,-0.7622,-0.7625,0,0,0,0,0,0,0,0,0,0,0,0,0,-0.709,-0.7093,-0.727,-0.7272,-0.7274,-0.7401,-0.7403,-0.7405,-0.7482,-0.7483,-0.7483,-0.7483,-0.7617,-0.7621,-0.7625,0,0,0,0,0,0,0,0,0,0,0,0,0,-0.7189,-0.7094,-0.727,-0.7327,-0.7334,-0.7401,-0.7403,-0.7405,-0.7482,-0.7483,-0.7483,-0.7484,-0.7616,-0.7621,-0.7626,-0.7646,0,0,-0.7641,-0.7643,0,0,0,0,0,0,0,0,-0.7183,-0.7196,-0.7317,-0.7324,-0.7331,-0.7426,-0.7389,-0.7486,-0.7482,-0.7426,-0.7483,-0.7484,-0.7554,-0.7564,-0.7588,-0.7652,-0.7658,-0.7641,-0.7644,-0.7646,-0.7648,0,0,0,0,0,0,0,-0.7177,-0.7191,-0.7322,-0.7319,-0.7327,-0.7348,-0.7362,-0.7408,-0.7486,-0.7431,-0.7437,-0.7451,-0.7558,-0.7583,-0.7591,-0.766,-0.7641,-0.7646,-0.7649,-0.7651,-0.7752,-0.7752,0,0,0,0,0,0,-0.716,-0.7184,-0.7318,-0.7326,-0.7257,-0.7351,-0.7367,-0.7395,-0.7485,-0.75,-0.7451,-0.7454,-0.7574,-0.7586,-0.7597,-0.7629,-0.7646,-0.7651,-0.7654,-0.7752,-0.7752,-0.7752,0,0,0,0,0,0,-0.7156,-0.7171,-0.7313,-0.7257,-0.7277,-0.7353,-0.7384,-0.7397,-0.7422,-0.75,-0.7515,-0.7461,-0.7575,-0.759,-0.7634,-0.7634,-0.7653,-0.7658,-0.7753,-0.7752,-0.7752,-0.7691,0,0,0,0,0,0,-0.715,-0.7169,-0.7177,-0.7257,-0.7279,-0.7347,-0.7384,-0.74,-0.743,-0.7436,-0.7514,-0.7528,-0.7577,-0.7626,-0.7639,-0.7641,-0.7662,-0.7753,-0.7753,-0.7752,-0.7693,-0.7688,-0.7684,0,0,0,0,0,-0.7144,-0.7154,-0.7177,-0.7192,-0.729,-0.7346,-0.736,-0.7415,-0.743,-0.7439,-0.749,-0.7525,-0.7632,-0.763,-0.7645,-0.7649,-0.7753,-0.7753,-0.7752,-0.7695,-0.7689,-0.7684,0,0,0,0,0,0,-0.7072,-0.7165,-0.7192,-0.7228,-0.7279,-0.7359,-0.7372,-0.7407,-0.7455,-0.7458,-0.7526,-0.7543,-0.7581,-0.762,-0.7616,-0.7675,-0.7697,-0.7699,-0.7649,-0.7644,-0.7639,-0.7629,-0.7666,0,0,0,0,0,-0.706,-0.7097,-0.7177,-0.7202,-0.7226,-0.7295,-0.7321,-0.736,-0.7416,-0.7437,-0.7491,-0.7544,-0.7591,-0.7619,-0.7666,-0.7699,-0.7719,-0.771,-0.7705,-0.7701,-0.7703,-0.7726,-0.7724,-0.775,-0.775,-0.775,0,0,-0.7036,-0.7092,-0.7111,-0.7189,-0.7233,-0.7271,-0.7312,-0.735,-0.738,-0.7444,-0.7489,-0.7531,-0.7595,-0.7634,-0.7655,-0.7668,-0.77,-0.7701,-0.7697,-0.7701,-0.7725,-0.7723,-0.7721,-0.7749,-0.775,-0.775,0,0,-0.7013,-0.7058,-0.7084,-0.7128,-0.7195,-0.7241,-0.7247,-0.7324,-0.7354,-0.7401,-0.745,-0.7487,-0.7564,-0.7608,-0.7641,-0.7638,-0.7673,-0.7651,-0.7628,-0.765,-0.7648,-0.7646,-0.7647,-0.7646,-0.7652,-0.7652,-0.7652,0,-0.6975,-0.7034,-0.7093,-0.713,-0.7164,-0.7223,-0.7252,-0.7292,-0.737,-0.7392,-0.7406,-0.7506,-0.7553,-0.7605,-0.7605,-0.7628,-0.7639,-0.7642,-0.7643,-0.7642,-0.7642,-0.7644,-0.7643,-0.7649,-0.7649,-0.7649,-0.765,0,-0.6985,-0.7026,-0.7039,-0.7114,-0.7149,-0.7181,-0.7247,-0.7276,-0.7312,-0.7357,-0.7406,-0.7465,-0.7526,-0.7541,-0.7576,-0.76,-0.7606,-0.763,-0.7654,-0.7635,-0.7638,-0.7639,-0.7644,-0.7646,-0.7646,-0.7647,0,0,-0.6918,-0.7028,-0.7032,-0.7068,-0.7147,-0.718,-0.7216,-0.7275,-0.73,-0.7352,-0.7385,-0.7451,-0.7475,-0.7512,-0.7553,-0.7573,-0.7569,-0.7595,-0.7598,-0.759,-0.7601,-0.7582,-0.7582,-0.7593,-0.7593,-0.7594,-0.7596,0,-0.6907,-0.6974,-0.703,-0.7077,-0.7117,-0.7176,-0.7208,-0.726,-0.7304,-0.7345,-0.7394,-0.744,-0.7467,-0.749,-0.7512,-0.7565,-0.7572,-0.7565,-0.7626,-0.7627,-0.7609,-0.7583,-0.7563,-0.7562,-0.7597,-0.7597,-0.7597,0,-0.6903,-0.6954,-0.7005,-0.7083,-0.7102,-0.7129,-0.719,-0.7228,-0.729,-0.7321,-0.7363,-0.7407,-0.745,-0.7469,-0.753,-0.7524,-0.7552,-0.7582,-0.7584,-0.7592,-0.7611,-0.7592,-0.7563,-0.7563,-0.7599,-0.7599,-0.7599,0,-0.6851,-0.6933,-0.6975,-0.7004,-0.7095,-0.7113,-0.7152,-0.7215,-0.7248,-0.7302,-0.7324,-0.7382,-0.7413,-0.7458,-0.7517,-0.7525,-0.7572,-0.7596,-0.76,-0.7599,-0.7608,-0.7606,-0.7584,-0.7624,-0.7624,-0.7624,-0.7624,0,-0.6834,-0.6863,-0.6953,-0.6979,-0.7014,-0.7079,-0.7113,-0.7157,-0.7213,-0.7249,-0.7304,-0.7337,-0.7412,-0.7455,-0.7502,-0.7547,-0.756,-0.7587,-0.76,-0.7583,-0.758,-0.7603,-0.7605,-0.7624,-0.7624,-0.7624,-0.7624,0,-0.6782,-0.6843,-0.6893,-0.6976,-0.6998,-0.702,-0.7092,-0.712,-0.7168,-0.7214,-0.7228,-0.7303,-0.7357,-0.7421,-0.7494,-0.7526,-0.7567,-0.7585,-0.7546,-0.7553,-0.7555,-0.7554,-0.7548,-0.7551,-0.7587,-0.7586,-0.7586,0,-0.6767,-0.6791,-0.6877,-0.6906,-0.6943,-0.6988,-0.7023,-0.7089,-0.7123,-0.7197,-0.7217,-0.7275,-0.7325,-0.7408,-0.747,-0.7528,-0.7548,-0.7541,-0.7557,-0.754,-0.755,-0.7548,-0.7551,-0.7537,-0.7536,-0.7536,-0.7535,0,-0.6734,-0.6764,-0.6812,-0.6871,-0.6911,-0.6961,-0.7013,-0.7033,-0.711,-0.7146,-0.7202,-0.7241,-0.7317,-0.7375,-0.7441,-0.7483,-0.7523,-0.753,-0.7535,-0.7518,-0.7496,-0.751,-0.7536,-0.753,-0.7531,-0.7531,-0.7531,-0.7531,-0.6702,-0.6727,-0.6792,-0.6844,-0.6891,-0.6939,-0.697,-0.7023,-0.707,-0.7138,-0.7174,-0.723,-0.7294,-0.7387,-0.7428,-0.7473,-0.7487,-0.7493,-0.7494,-0.7495,-0.7491,-0.7488,-0.7485,-0.7486,-0.7486,-0.7486,-0.7486,0,-0.6674,-0.6719,-0.6766,-0.6838,-0.688,-0.6914,-0.6974,-0.7007,-0.7055,-0.7112,-0.716,-0.7226,-0.7283,-0.735,-0.7411,-0.7435,-0.7455,-0.7449,-0.7449,-0.7458,-0.7475,-0.7465,-0.7432,-0.7432,-0.7432,-0.7432,-0.7432,-0.7432,-0.6664,-0.6709,-0.6747,-0.6817,-0.6863,-0.6917,-0.6949,-0.6995,-0.7041,-0.7111,-0.7159,-0.7202,-0.7264,-0.7331,-0.7386,-0.7404,-0.7425,-0.7414,-0.7438,-0.7452,-0.7457,-0.7461,-0.7453,-0.7417,-0.7417,-0.7418,-0.7418,-0.7418]},{"header":{"parameterUnit":"m.s-1","parameterCategory":1,"la1":30.2991,"la2":30.254,"lo1":-89.0895,"lo2":-89.0444,"dy":0.0017,"dx":0.0017,"nx":28,"ny":28,"refTime":"2023-08-20T09:00:00:Z","depth":0,"parameterNumber":3,"parameterNumberName":"V-component_of_WINDS"},"data":[0,0,0,0,0,0,0,0,0,0,0,0,0,0,0,0,0,0,0,0,0,0,0,0,0,0,0,0,0,0,0,0,0,0,0,0,0,0,0,0,0,0,0,0,0,0,0,0,0,0,0,0,0,0,0,0,0,0,1.2035,1.2035,0,1.1994,1.1994,1.1993,1.1959,1.1958,1.1958,1.1957,1.1914,1.1913,1.1912,0,0,0,0,0,0,0,0,0,0,0,0,0,1.2081,1.208,1.2035,1.2035,1.2034,1.1994,1.1994,1.1993,1.1959,1.1958,1.1958,1.1957,1.1914,1.1913,1.1912,0,0,0,0,0,0,0,0,0,0,0,0,0,1.2053,1.208,1.2035,1.2012,1.201,1.1995,1.1994,1.1993,1.1959,1.1958,1.1958,1.1957,1.1914,1.1913,1.1912,1.1916,0,0,1.1908,1.1908,0,0,0,0,0,0,0,0,1.2054,1.2051,1.2016,1.2014,1.2011,1.1981,1.1994,1.1967,1.1959,1.1978,1.1957,1.1957,1.1936,1.1933,1.1927,1.1914,1.1912,1.1908,1.1907,1.1907,1.1907,0,0,0,0,0,0,0,1.2056,1.2052,1.2019,1.2016,1.2012,1.2003,1.1998,1.1989,1.1961,1.1976,1.1974,1.1969,1.1935,1.1928,1.1926,1.1911,1.1908,1.1907,1.1906,1.1906,1.1897,1.1898,0,0,0,0,0,0,1.2062,1.2054,1.202,1.2018,1.2032,1.2003,1.1997,1.1991,1.1961,1.1956,1.197,1.1968,1.193,1.1927,1.1924,1.1925,1.1907,1.1906,1.1905,1.1897,1.1897,1.1898,0,0,0,0,0,0,1.2063,1.2059,1.2022,1.2035,1.203,1.2002,1.1996,1.1991,1.1984,1.1956,1.1951,1.1968,1.193,1.1926,1.1918,1.1923,1.1905,1.1904,1.1896,1.1897,1.1897,1.1928,0,0,0,0,0,0,1.2065,1.206,1.2062,1.2036,1.2029,1.2017,1.1996,1.199,1.1982,1.1979,1.1953,1.1948,1.1929,1.192,1.1917,1.1921,1.1903,1.1895,1.1896,1.1897,1.1927,1.193,1.1933,0,0,0,0,0,1.2066,1.2072,1.2062,1.2058,1.2031,1.2018,1.2014,1.1992,1.1983,1.1984,1.1966,1.1949,1.1923,1.1919,1.1915,1.192,1.1895,1.1896,1.1897,1.1925,1.1929,1.1933,0,0,0,0,0,0,1.2099,1.2068,1.2057,1.2055,1.2039,1.2012,1.2013,1.1998,1.1984,1.1982,1.1955,1.195,1.1944,1.1931,1.1927,1.1921,1.1907,1.1907,1.1929,1.1933,1.1936,1.1939,1.1902,0,0,0,0,0,1.2106,1.2099,1.2072,1.2072,1.2065,1.2041,1.2034,1.2019,1.2001,1.1994,1.1976,1.1959,1.1947,1.1939,1.1927,1.1925,1.1918,1.1926,1.1929,1.1931,1.1932,1.1928,1.193,1.1901,1.1901,1.1901,0,0,1.2121,1.2103,1.21,1.2079,1.2065,1.2056,1.2035,1.2028,1.2021,1.1993,1.1984,1.197,1.1949,1.1944,1.1941,1.1933,1.1938,1.1933,1.1935,1.1934,1.1929,1.1932,1.1934,1.1902,1.1902,1.1902,0,0,1.2142,1.2129,1.2127,1.2114,1.2093,1.2076,1.2076,1.2051,1.204,1.2031,1.201,1.2001,1.1981,1.1967,1.1957,1.1972,1.1955,1.1968,1.1984,1.1981,1.1983,1.1985,1.1989,1.1991,1.1969,1.1969,1.1969,0,1.2163,1.215,1.2128,1.2121,1.2112,1.2087,1.2084,1.2072,1.2048,1.2041,1.2033,1.2007,1.1991,1.1981,1.1985,1.1978,1.1976,1.1971,1.1985,1.1986,1.1988,1.1991,1.1993,1.1971,1.1971,1.197,1.197,0,1.2175,1.2167,1.2167,1.2145,1.2136,1.2132,1.2108,1.2101,1.2086,1.207,1.206,1.204,1.2022,1.2019,1.2005,1.2007,1.2002,1.199,1.1975,1.1992,1.1995,1.1996,1.1973,1.1973,1.1972,1.1972,0,0,1.2216,1.2181,1.2182,1.2171,1.2146,1.2139,1.2132,1.2115,1.2109,1.2094,1.2087,1.207,1.2058,1.2047,1.203,1.2027,1.2038,1.2015,1.2014,1.2019,1.2037,1.2046,1.2048,1.2028,1.2028,1.2028,1.2038,0,1.2232,1.222,1.22,1.2194,1.2185,1.216,1.2154,1.2138,1.2123,1.2112,1.2094,1.2082,1.2068,1.2061,1.2057,1.2038,1.2042,1.2037,1.2019,1.2019,1.2024,1.2049,1.2059,1.207,1.2039,1.204,1.204,0,1.225,1.2236,1.2229,1.2204,1.2199,1.2195,1.2177,1.2167,1.2148,1.2136,1.2124,1.2106,1.2096,1.2083,1.2069,1.2066,1.2058,1.2047,1.2047,1.2043,1.203,1.2045,1.2073,1.2074,1.2041,1.2041,1.2041,0,1.2279,1.2258,1.2251,1.2243,1.2213,1.221,1.2198,1.2178,1.2168,1.2152,1.2146,1.2129,1.2119,1.2106,1.2083,1.2076,1.2071,1.2056,1.206,1.206,1.2059,1.2059,1.2084,1.2055,1.2055,1.2055,1.2055,0,1.2298,1.2295,1.2263,1.2259,1.2254,1.223,1.2225,1.221,1.2192,1.2183,1.2161,1.2153,1.2124,1.2112,1.2095,1.2084,1.208,1.207,1.2065,1.2071,1.2072,1.2065,1.2063,1.2056,1.2056,1.2056,1.2056,0,1.2329,1.2308,1.2298,1.2272,1.2265,1.2262,1.2238,1.2232,1.2216,1.2205,1.2201,1.2174,1.2159,1.2135,1.2113,1.21,1.2093,1.2085,1.21,1.2096,1.21,1.21,1.212,1.2121,1.2094,1.2094,1.2094,0,1.2343,1.2339,1.2312,1.2305,1.2293,1.2282,1.2273,1.2249,1.2239,1.2216,1.2212,1.2196,1.2181,1.2157,1.2135,1.2117,1.2109,1.2117,1.2106,1.2112,1.2107,1.2107,1.2106,1.2119,1.212,1.212,1.212,0,1.2368,1.2358,1.2345,1.2329,1.2318,1.2304,1.2289,1.2284,1.2256,1.2246,1.2231,1.2219,1.2197,1.2179,1.2159,1.2144,1.2127,1.2124,1.2124,1.213,1.2137,1.2132,1.2105,1.2124,1.2123,1.2123,1.2123,1.2123,1.2389,1.2385,1.2365,1.2351,1.2337,1.2323,1.2316,1.2298,1.2285,1.2265,1.2252,1.2237,1.2215,1.2186,1.2172,1.2159,1.2152,1.2151,1.2151,1.2151,1.2153,1.2141,1.2155,1.2155,1.2155,1.2155,1.2155,0,1.2412,1.2398,1.2386,1.2366,1.2355,1.2341,1.2323,1.2314,1.2301,1.2284,1.2269,1.2251,1.2234,1.221,1.2191,1.2185,1.2177,1.2181,1.218,1.2177,1.2161,1.2163,1.2188,1.2188,1.2188,1.2188,1.2188,1.2188,1.2423,1.2414,1.2402,1.2385,1.2371,1.2356,1.2347,1.2333,1.2319,1.2299,1.2286,1.2271,1.225,1.2229,1.2212,1.2205,1.2199,1.2205,1.2196,1.2181,1.2178,1.2175,1.2177,1.2204,1.2204,1.2213,1.2213,1.2213]}]]